Date String (YYYY-MM-DD hh:mm:ss) UTC,Instrument flags,Ambient pressure (hPa),Sample flow (lpm),Bypass flow (lpm),Sample temperature (°C),Ambient temperature (°C),ASC tube jacket temperature (°C),LED temperature (°C),Box temperature (°C),Sample RH (%),Span deviation,Mass concentration (μg/m³),Mass concentration (μg/m³),Mass concentration (μg/m³)
DateTimeUTC,F1_M11,P_M11,Q1_M11,Q2_M11,T1_M11,T2_M11,T3_M11,T4_M11,T5_M11,U1_M11,ZSPAN_M11,X0_M11,X2_M11,X1_M11
2023-01-03 08:00:00,,0816.8,5.00,0.00,22.4,20.9,00.0,31.4,24.1,13.5,0000.0,0001.90,0001.51,0001.42
2023-01-03 08:01:00,,0816.8,5.01,0.00,22.4,20.8,00.0,31.4,24.0,13.5,0000.0,0001.89,0001.49,0001.40
2023-01-03 08:02:00,,0816.9,5.00,0.00,22.4,20.8,00.0,31.3,24.0,13.5,0000.0,0001.87,0001.47,0001.37
2023-01-03 08:03:00,,0816.8,4.99,0.00,22.4,20.8,00.0,31.3,24.0,13.5,0000.0,0001.70,0001.43,0001.34
2023-01-03 08:04:00,,0816.9,5.00,0.00,22.3,20.8,00.0,31.3,24.0,13.5,0000.0,0001.61,0001.41,0001.35
2023-01-03 08:05:00,,0816.9,5.00,0.00,22.4,21.3,00.0,31.3,24.1,13.5,0000.0,0001.61,0001.42,0001.37
2023-01-03 08:06:00,,0816.8,5.00,0.00,22.5,22.3,00.0,31.2,24.4,13.3,0000.0,0001.60,0001.42,0001.37
2023-01-03 08:07:00,,0816.9,4.99,0.00,22.6,23.1,00.0,31.3,24.6,13.2,0000.0,0001.60,0001.41,0001.36
2023-01-03 08:08:00,,0816.9,5.00,0.00,22.7,22.9,00.0,31.3,24.7,13.2,0000.0,0001.52,0001.38,0001.34
2023-01-03 08:09:00,,0816.9,4.98,0.00,22.7,22.4,00.0,31.4,24.6,13.2,0000.0,0001.49,0001.36,0001.33
2023-01-03 08:10:00,,0816.9,4.99,0.00,22.7,22.0,00.0,31.4,24.5,13.0,0000.0,0001.49,0001.34,0001.30
2023-01-03 08:11:00,,0816.9,5.06,0.00,22.6,21.7,00.0,31.4,24.4,13.0,0000.0,0001.53,0001.34,0001.28
2023-01-03 08:12:00,,0816.8,5.02,0.00,22.6,21.5,00.0,31.4,24.3,12.9,0000.0,0001.53,0001.32,0001.25
2023-01-03 08:13:00,,0816.9,4.96,0.00,22.6,21.3,00.0,31.4,24.3,12.8,0000.0,0001.52,0001.31,0001.23
2023-01-03 08:14:00,,0816.9,4.99,0.00,22.6,21.2,00.0,31.4,24.2,12.7,0000.0,0001.50,0001.28,0001.20
2023-01-03 08:15:00,,0816.8,5.02,0.00,22.5,21.1,00.0,31.4,24.2,12.8,0000.0,0001.49,0001.25,0001.16
2023-01-03 08:16:00,,0816.8,4.99,0.00,22.5,21.0,00.0,31.4,24.2,12.8,0000.0,0001.46,0001.21,0001.13
2023-01-03 08:17:00,,0816.8,5.00,0.00,22.5,21.0,00.0,31.4,24.1,13.0,0000.0,0001.47,0001.23,0001.14
2023-01-03 08:18:00,,0816.8,4.99,0.00,22.5,20.9,00.0,31.4,24.1,13.2,0000.0,0001.52,0001.28,0001.20
2023-01-03 08:19:00,,0816.8,4.98,0.00,22.4,20.9,00.0,31.4,24.1,13.2,0000.0,0001.53,0001.30,0001.22
2023-01-03 08:20:00,,0816.7,5.02,0.00,22.4,20.9,00.0,31.4,24.1,13.3,0000.0,0001.59,0001.36,0001.27
2023-01-03 08:21:00,,0816.8,5.01,0.00,22.4,20.9,00.0,31.3,24.0,13.4,0000.0,0001.74,0001.49,0001.39
2023-01-03 08:22:00,,0816.8,4.99,0.00,22.4,20.8,00.0,31.3,24.0,13.5,0000.0,0001.82,0001.61,0001.52
2023-01-03 08:23:00,,0816.7,5.01,0.00,22.3,20.8,00.0,31.3,24.0,13.6,0000.0,0001.92,0001.73,0001.64
2023-01-03 08:24:00,,0816.8,5.04,0.00,22.3,20.8,00.0,31.3,24.0,13.6,0000.0,0002.11,0001.88,0001.78
2023-01-03 08:25:00,,0816.8,5.02,0.00,22.3,20.7,00.0,31.3,23.9,13.6,0000.0,0002.26,0002.01,0001.90
2023-01-03 08:26:00,,0816.8,4.96,0.00,22.3,21.2,00.0,31.2,24.0,13.7,0000.0,0002.38,0002.13,0002.02
2023-01-03 08:27:00,,0816.8,4.97,0.00,22.4,22.2,00.0,31.2,24.3,13.7,0000.0,0002.58,0002.32,0002.19
2023-01-03 08:28:00,,0816.8,5.01,0.00,22.5,22.9,00.0,31.2,24.5,13.7,0000.0,0002.78,0002.50,0002.37
2023-01-03 08:29:00,,0816.8,5.04,0.00,22.6,22.5,00.0,31.3,24.5,13.6,0000.0,0002.89,0002.60,0002.47
2023-01-03 08:30:00,,0816.8,4.97,0.00,22.6,21.9,00.0,31.3,24.4,13.6,0000.0,0003.07,0002.75,0002.59
2023-01-03 08:31:00,,0816.8,5.01,0.00,22.5,21.4,00.0,31.3,24.2,13.7,0000.0,0003.29,0002.91,0002.70
2023-01-03 08:32:00,,0816.8,4.99,0.00,22.5,21.1,00.0,31.3,24.0,13.7,0000.0,0003.36,0002.98,0002.75
2023-01-03 08:33:00,,0816.8,5.03,0.00,22.4,20.7,00.0,31.3,23.9,13.7,0000.0,0003.44,0003.02,0002.78
2023-01-03 08:34:00,,0816.8,4.98,0.00,22.3,20.4,00.0,31.3,23.8,13.8,0000.0,0003.51,0003.08,0002.83
2023-01-03 08:35:00,,0816.8,5.02,0.00,22.2,20.2,00.0,31.3,23.7,13.9,0000.0,0003.47,0003.07,0002.85
2023-01-03 08:36:00,,0816.9,4.99,0.00,22.2,20.0,00.0,31.2,23.6,13.8,0000.0,0003.46,0003.06,0002.85
2023-01-03 08:37:00,,0816.8,4.99,0.00,22.1,19.9,00.0,31.2,23.5,13.7,0000.0,0003.38,0002.99,0002.78
2023-01-03 08:38:00,,0816.8,5.00,0.00,22.0,19.9,00.0,31.2,23.5,13.7,0000.0,0003.22,0002.83,0002.63
2023-01-03 08:39:00,,0816.8,5.01,0.00,21.9,19.8,00.0,31.1,23.4,13.6,0000.0,0003.04,0002.66,0002.47
2023-01-03 08:40:00,,0816.8,5.00,0.00,21.9,19.7,00.0,31.1,23.3,13.6,0000.0,0002.91,0002.53,0002.33
2023-01-03 08:41:00,,0816.8,5.00,0.00,21.8,20.0,00.0,31.0,23.4,13.8,0000.0,0002.77,0002.40,0002.22
2023-01-03 08:42:00,,0816.8,5.01,0.00,21.9,21.3,00.0,30.9,23.7,13.8,0000.0,0002.55,0002.24,0002.10
2023-01-03 08:43:00,,0816.7,4.97,0.00,22.1,22.4,00.0,30.9,24.0,13.7,0000.0,0002.42,0002.13,0002.03
2023-01-03 08:44:00,,0816.8,5.01,0.00,22.2,22.4,00.0,31.0,24.1,13.7,0000.0,0002.30,0002.05,0001.97
2023-01-03 08:45:00,,0816.8,5.01,0.00,22.2,21.9,00.0,31.0,24.1,13.7,0000.0,0002.27,0002.02,0001.95
2023-01-03 08:46:00,,0816.8,5.00,0.00,22.2,21.5,00.0,31.1,24.0,13.8,0000.0,0002.30,0002.04,0001.96
2023-01-03 08:47:00,,0816.8,4.99,0.00,22.2,21.1,00.0,31.1,23.9,13.9,0000.0,0002.34,0002.10,0002.02
2023-01-03 08:48:00,,0816.8,5.00,0.00,22.2,20.9,00.0,31.1,23.8,13.9,0000.0,0002.40,0002.19,0002.11
2023-01-03 08:49:00,,0816.7,4.97,0.00,22.1,20.7,00.0,31.1,23.8,13.9,0000.0,0002.89,0002.37,0002.24
2023-01-03 08:50:00,,0816.8,4.97,0.00,22.1,20.6,00.0,31.1,23.8,13.9,0000.0,0003.24,0002.52,0002.36
2023-01-03 08:51:00,,0816.8,4.98,0.00,22.1,20.5,00.0,31.1,23.7,13.9,0000.0,0003.32,0002.61,0002.45
2023-01-03 08:52:00,,0816.8,5.00,0.00,22.1,20.4,00.0,31.0,23.6,13.9,0000.0,0003.41,0002.70,0002.53
2023-01-03 08:53:00,,0816.8,5.06,0.00,22.0,20.3,00.0,31.0,23.6,13.9,0000.0,0003.52,0002.79,0002.60
2023-01-03 08:54:00,,0816.8,4.98,0.00,22.0,20.1,00.0,31.0,23.6,13.9,0000.0,0003.55,0002.83,0002.64
2023-01-03 08:55:00,,0816.8,4.98,0.00,21.9,20.0,00.0,31.0,23.5,14.0,0000.0,0003.60,0002.87,0002.67
2023-01-03 08:56:00,,0816.8,5.01,0.00,21.9,19.9,00.0,31.0,23.4,14.0,0000.0,0003.55,0002.85,0002.66
2023-01-03 08:57:00,,0816.8,5.01,0.00,21.8,19.8,00.0,30.9,23.3,14.0,0000.0,0003.49,0002.79,0002.61
2023-01-03 08:58:00,,0816.9,5.00,0.00,21.9,20.7,00.0,30.9,23.6,13.9,0000.0,0003.47,0002.74,0002.55
2023-01-03 08:59:00,,0816.7,4.99,0.00,22.0,21.9,00.0,30.8,23.9,13.8,0000.0,0003.51,0002.69,0002.48
